Regional Weather Roundup
Issued by NWS Little Rock, AR

Home | Current Version | Previous Version | Text Only | Print | Product List | Glossary On
Versions: 1 2 3 4 5 6 7 8 9 10 11 12 13 14 15 16 17 18 19 20 21 22 23 24 25 26 27
000
ASUS44 KLZK 061405
RWRLZK

WEATHER ROUNDUP FOR ARKANSAS
NATIONAL WEATHER SERVICE LITTLE ROCK AR
900 AM CDT FRI MAY 06 2016

NOTE: "FAIR" INDICATES FEW OR NO CLOUDS BELOW 12,000 FEET WITH NO
SIGNIFICANT WEATHER AND/OR OBSTRUCTIONS TO VISIBILITY.

ARZ001-003-010-029-061500-
NORTHWEST ARKANSAS

CITY           SKY/WX    TMP DP  RH WIND       PRES   REMARKS
FAYETTEVILLE   SUNNY     53  47  79 CALM      30.14R
FORT SMITH     SUNNY     59  46  62 E5        30.15R
HARRISON       SUNNY     59  43  55 CALM      30.13R
BENTONVILLE    SUNNY     61  43  51 S3        30.14R
ROGERS         SUNNY     60  46  59 SE5       30.14R
SILOAM SPGS    SUNNY     57  43  58 CALM      30.14R
HIGHFILL       SUNNY     58  47  66 SE3       30.13R
SPRINGDALE     SUNNY     57  43  58 E3        30.15R
$$

ARZ004-005-016-061500-
NORTH CENTRAL ARKANSAS

CITY           SKY/WX    TMP DP  RH WIND       PRES   REMARKS
BATESVILLE     SUNNY     57  46  67 CALM      30.13S
FLIPPIN        SUNNY    N/A N/A N/A SW3       30.10S
MTN HOME       SUNNY     57  45  64 VRB3      30.12R
$$

ARZ040-041-061500-
WEST CENTRAL ARKANSAS

CITY           SKY/WX    TMP DP  RH WIND       PRES   REMARKS
MENA           SUNNY     59  50  72 CALM      30.16R
MOUNT IDA      SUNNY     58  49  72 W3        30.12R
$$

ARZ009-017-025-026-028-061500-
NORTHEAST ARKANSAS

CITY           SKY/WX    TMP DP  RH WIND       PRES   REMARKS
CORNING          N/A     57  48  72 NW6       30.12R
JONESBORO      SUNNY     61  47  59 W10       30.11S
NEWPORT        SUNNY     61  48  62 W6        30.13S
WALNUT RIDGE   SUNNY     59  46  63 W3        30.12R
BLYTHEVILLE    SUNNY     63  51  65 N9        30.10S
NW BLYTHEVILLE SUNNY     61  48  63 NW9       30.10R
$$

ARZ022-023-033-042-044-061500-
CENTRAL ARKANSAS

CITY           SKY/WX    TMP DP  RH WIND       PRES   REMARKS
LITTLE ROCK    SUNNY     61  47  59 CALM      30.12S
N LITTLE ROCK    N/A     64  46  51 E3        30.11S
JACKSONVILLE   SUNNY     62  48  61 E1        30.11F
SEARCY         SUNNY     61  49  64 CALM      30.14S
HOT SPRINGS    SUNNY     59  48  67 CALM      30.15R
RUSSELLVILLE   SUNNY     59  46  62 CALM      30.13R
CLINTON        FAIR      54  46  76 CALM      30.14S
$$

ARZ036-061500-
EAST ARKANSAS

CITY           SKY/WX    TMP DP  RH WIND       PRES   REMARKS
WEST MEMPHIS   SUNNY     59  51  75 NW8       30.10R
$$

ARZ050-053-066-070-073-061500-
SOUTHWEST ARKANSAS

CITY           SKY/WX    TMP DP  RH WIND       PRES   REMARKS
ARKADELPHIA    FAIR      62  51  67 VRB3      30.16R
CAMDEN         SUNNY     61  46  59 CALM      30.14R
TEXARKANA      SUNNY     60  50  69 VRB5      30.13R
EL DORADO      SUNNY     62  49  62 E8        30.14R
DE QUEEN       SUNNY     61  49  64 E6        30.14R
$$

ARZ056-057-069-061500-
SOUTHEAST ARKANSAS

CITY           SKY/WX    TMP DP  RH WIND       PRES   REMARKS
PINE BLUFF     SUNNY     61  47  59 E7        30.12S
STUTTGART      SUNNY     61  48  63 CALM      30.12F
MONTICELLO     SUNNY     62  48  60 E8        30.12R

$$






USA.gov is the U.S. government's official web portal to all federal, state and local government web resources and services.